Regional Weather Roundup
Issued by NWS State College, PA

Home | Current Version | Previous Version | Graphics & Text | Print | Product List | Glossary Off
Versions: 1 2 3 4 5 6 7 8 9 10 11 12 13 14 15 16 17 18 19 20 21 22 23 24 25 26 27 28 29 30 31 32 33 34 35 36 37 38 39 40 41 42 43 44 45 46 47 48 49 50

000
ASUS41 KCTP 212110
RWRCTP

REGIONAL WEATHER ROUNDUP
NATIONAL WEATHER SERVICE STATE COLLEGE PA
500 PM EDT THU AUG 21 2014

Note: "fair" indicates few or no clouds below 12,000 feet with no
significant weather and/or obstructions to visibility.

* = STATION THAT DOES NOT REPORT PRECIPITATION /E.G. RAIN...SNOW...ETC/
    THUNDER OR FOG.

PAZ002>004-007>009-013>016-020>023-029>032-212200-
WESTERN PENNSYLVANIA

CITY           SKY/WX    TMP DP  RH WIND       PRES   REMARKS
ERIE           SUNNY     77  67  71 VRB6      29.97S
MEADVILLE      PTSUNNY   73  66  78 S12       30.01S
FRANKLIN*      PTSUNNY   72  66  83 SW9       30.03F
NEW CASTLE     NOT AVBL
BEAVER COUNTY  MOSUNNY   77  68  73 SW8       30.02F
BUTLER*        CLOUDY    73  68  83 S7        30.03F
PITTSBURGH INT CLOUDY    75  67  76 W6        30.02S
PITTSBURGH     CLOUDY    75  65  70 SW8G17    30.03S
INDIANA*       PTSUNNY   75  68  78 SW10      30.08R
LATROBE        CLOUDY    75  72  88 SW14      30.05F
WASHINGTON CO* CLOUDY    73  66  78 SW7       30.05S
$$

PAZ004>006-010>012-017>019-024>028-033>037-041-042-045-046-049>053-212200-
CENTRAL PENNSYLVANIA

CITY           SKY/WX    TMP DP  RH WIND       PRES   REMARKS
BRADFORD       MOSUNNY   78  63  59 VRB7      30.02F
DUBOIS         HVY RAIN  64  63  96 CALM      30.05R VSB 1/2
CLEARFIELD     LGT RAIN  67  67 100 SW7       30.04S
JOHNSTOWN      CLOUDY    73  63  70 W12       30.08S
ALTOONA        CLOUDY    78  67  68 W10       30.04R
STATE COLLEGE  PTSUNNY   68  66  94 SW5       30.03F
WILLIAMSPORT   MOSUNNY   81  64  56 S8        29.95F
SELINSGROVE    PTSUNNY   76  67  73 CALM      29.98F
FT INDIANTOWN  CLOUDY    80  74  81 CALM      30.00F
CAPITAL CITY   TSTM      73  67  81 SW14G20   30.00R
HARRISBURG     TSTM      78  72  81 CALM      29.97S
YORK           CLOUDY    81  69  67 CALM      29.99R
$$

PAZ038>040-043-044-047-048-054-055-060>062-067>071-212200-
EASTERN PENNSYLVANIA

CITY           SKY/WX    TMP DP  RH WIND       PRES   REMARKS
SCRANTON       PTSUNNY   82  66  58 SW13G25   29.98S
MOUNT POCONO   PTSUNNY   75  66  73 S10       30.04F
ALLENTOWN      CLOUDY    80  67  64 S7        29.99F
QUAKERTOWN*    CLOUDY    81  68  65 MISG      30.01F
READING        CLOUDY    83  69  62 S5        29.99S
LANCASTER      CLOUDY    80  71  74 SE3       29.99S
COATESVILLE    CLOUDY    77  75  94 CALM      30.02S
POTTSTOWN      CLOUDY    81  68  64 VRB3      30.01F
BLUE BELL      CLOUDY    82  70  65 S5        30.00S
DOYLESTOWN     CLOUDY    80  68  66 VRB5      30.00S
WILLOW GROVE   NOT AVBL
NORTH PHILA    CLOUDY    82  66  58 S3        30.01F
PHILADELPHIA   CLOUDY    82  68  62 S7        30.00S
$$



USA.gov is the U.S. government's official web portal to all federal, state and local government web resources and services.